Location: Unspecified
(43.9500°N, 64.7900°W)
Time: 05:45:57
(UTC-03:00)

N. Korean satellite - Visible Passes

Search period start: 20 October 2018 00:00
Search period end: 30 October 2018 00:00
Orbit: 459 x 510 km, 97.2° (Epoch: 19 October)

Date Brightness Start Highest point End Pass type
(mag) Time Alt. Az. Time Alt. Az. Time Alt. Az.
20 Oct 9.8 06:54:41 10° NE 06:57:25 20° E 07:00:06 10° SE visible
20 Oct 7.3 19:04:02 10° S 19:07:43 60° W 19:11:26 10° NNW visible
21 Oct 10.7 06:32:22 10° E 06:32:46 10° E 06:33:10 10° E visible
22 Oct 9.8 19:49:55 10° SW 19:52:30 18° W 19:55:07 10° NW visible
23 Oct 8.6 19:24:32 10° SSW 19:27:56 33° W 19:31:22 10° NNW visible
24 Oct 9.9 06:50:36 10° NE 06:53:06 18° E 06:55:34 10° SE visible
24 Oct 7.1 18:59:44 10° S 19:03:27 68° W 19:07:12 10° NNW visible
25 Oct 10.5 20:12:19 10° W 20:12:51 10° W 20:13:22 10° W visible
26 Oct 9.7 19:45:25 10° SW 19:48:11 20° W 19:50:59 10° NW visible
27 Oct 8.9 07:10:08 10° NNE 07:13:21 30° E 07:16:28 10° SSE visible
27 Oct 8.4 19:20:08 10° SSW 19:23:37 37° W 19:27:07 10° NNW visible
28 Oct 10.0 06:46:31 10° NE 06:48:44 16° E 06:50:55 10° SE visible
28 Oct 6.9 18:55:25 10° S 18:59:08 77° WSW 19:02:52 10° NNW visible
29 Oct 10.3 20:07:11 10° WSW 20:08:28 11° W 20:09:46 10° WNW visible
